Tracking 29892 objects as of 21-Nov-2024
HD Live streaming from Space Station
objects crossing your sky now

STARLINK-32235

Track STARLINK-32235 now!
10-day predictions
STARLINK-32235 is classified as:


NORAD ID: 60739
Int'l Code: 2024-152V
Perigee: 479.5 km
Apogee: 485.2 km
Inclination: 53.2 °
Period: 94.1 minutes
Semi major axis: 6853 km
RCS: Unknown
Launch date: August 28, 2024
Source: United States (US)
Launch site: AIR FORCE EASTERN TEST RANGE (AFETR)
Your satellite tracking list
Your tracking list is empty




NASA's NSSDC Master Catalog

Two Line Element Set (TLE):
1 60739U 24152V   24325.34328234 -.00008113  00000-0 -26194-3 0  9994
2 60739  53.1625 311.9050 0004153  82.2014 277.9458 15.30200091 14174
Source of the keplerian elements: AFSPC